Weather History for Mosby, MO

Change the Weather History Date:

Tuesday, March 18, 2014

  Actual Average (KMKC) Record (KMKC)
Temperature  
Mean Temperature 50 °F -  
Max Temperature 62 °F 53 °F 78 °F (2012)
Min Temperature 37 °F 33 °F 27 °F (2001)
Degree Days  
Heating Degree Days 16    
Moisture  
Dew Point 34 °F    
Average Humidity 57    
Maximum Humidity 81    
Minimum Humidity 37    
Precipitation  
Precipitation 0.00 in - - ()
Sea Level Pressure  
Sea Level Pressure 29.52 in    
Wind  
Wind Speed 7 mph (SSE)    
Max Wind Speed 17 mph    
Max Gust Speed 26 mph    
Visibility 10 miles    
Events Thunderstorm    
Averages and records for this station are not official NWS values.
T = Trace of Precipitation, MM = Missing Value Source: NWS Daily Summary

Daily Weather History Graph

Daily Weather History Graph

Search for Another Location

Airport:

Trip Planner

Search our weather history database for the weather conditions in past years. The results will help you decide how hot, cold, wet, or windy it might be!

Date:

Astronomy

Mar. 18, 2014 Rise Set
Actual Time 7:23 AM CDT 7:27 PM CDT
Civil Twilight 6:57 AM CDT 7:54 PM CDT
Nautical Twilight 6:25 AM CDT 8:25 PM CDT
Astronomical Twilight 5:54 AM CDT 8:57 PM CDT
Moon 9:44 PM CDT (3/18) 8:14 AM CDT (3/18)
Length of Visible Light 12h 56m
Length of Day
12h 03m
Waning Gibbous, 96% of the Moon is Illuminated
Mar 18
Waning Gibbous
Mar 23
Last Quarter
Mar 30
New
Apr 7
First Quarter
Apr 15
Full

Hourly Weather History & Observations

Time (CDT) Temp. Windchill Dew Point Humidity Pressure Visibility Wind Dir Wind Speed Gust Speed Precip Events Conditions
12:15 AM 41.0 °F 38.0 °F 24.8 °F 53% 29.62 in 10.0 mi SSE 4.6 mph - N/A   Clear
12:35 AM 39.2 °F 35.9 °F 24.8 °F 56% 29.62 in 10.0 mi ESE 4.6 mph - N/A   Unknown
12:55 AM 39.2 °F 35.9 °F 24.8 °F 56% 29.63 in 10.0 mi ESE 4.6 mph - N/A   Unknown
1:15 AM 37.4 °F 32.8 °F 26.6 °F 65% 29.62 in 10.0 mi SE 5.8 mph - N/A   Clear
1:35 AM 37.4 °F 33.8 °F 26.6 °F 65% 29.61 in 10.0 mi ESE 4.6 mph - N/A   Clear
1:55 AM 39.2 °F 35.9 °F 26.6 °F 61% 29.61 in 10.0 mi SE 4.6 mph - N/A   Clear
2:15 AM 41.0 °F 37.1 °F 26.6 °F 57% 29.60 in 10.0 mi SE 5.8 mph - N/A   Clear
2:35 AM 41.0 °F 39.0 °F 26.6 °F 57% 29.59 in 10.0 mi SE 3.5 mph - N/A   Clear
2:55 AM 41.0 °F 39.0 °F 28.4 °F 61% 29.59 in 10.0 mi ESE 3.5 mph - N/A   Clear
3:15 AM 39.2 °F 32.5 °F 28.4 °F 65% 29.58 in 10.0 mi ESE 10.4 mph - N/A   Clear
3:35 AM 39.2 °F 34.2 °F 30.2 °F 70% 29.58 in 10.0 mi SE 6.9 mph - N/A   Clear
3:55 AM 39.2 °F 34.2 °F 30.2 °F 70% 29.57 in 10.0 mi ESE 6.9 mph - N/A   Unknown
4:15 AM 37.4 °F 32.8 °F 30.2 °F 75% 29.55 in 10.0 mi ESE 5.8 mph - N/A   Clear
4:35 AM 37.4 °F 32.8 °F 30.2 °F 75% 29.55 in 10.0 mi SE 5.8 mph - N/A   Clear
4:55 AM 37.4 °F 32.8 °F 32.0 °F 81% 29.55 in 10.0 mi ESE 5.8 mph - N/A   Clear
5:15 AM 37.4 °F 32.1 °F 32.0 °F 81% 29.55 in 10.0 mi ESE 6.9 mph - N/A   Clear
5:35 AM 39.2 °F 34.2 °F 32.0 °F 75% 29.56 in 10.0 mi ESE 6.9 mph - N/A   Clear
5:55 AM 39.2 °F 33.6 °F 32.0 °F 75% 29.55 in 10.0 mi ESE 8.1 mph - N/A   Clear
6:15 AM 39.2 °F 33.6 °F 32.0 °F 75% 29.54 in 10.0 mi SE 8.1 mph - N/A   Clear
6:35 AM 41.0 °F 34.7 °F 32.0 °F 70% 29.52 in 10.0 mi ESE 10.4 mph 16.1 mph N/A   Clear
6:55 AM 41.0 °F 34.7 °F 32.0 °F 70% 29.52 in 10.0 mi SE 10.4 mph - N/A   Clear
7:15 AM 41.0 °F 34.7 °F 33.8 °F 76% 29.53 in 10.0 mi SE 10.4 mph - N/A   Clear
7:35 AM 41.0 °F 35.2 °F 33.8 °F 76% 29.53 in 10.0 mi ESE 9.2 mph - N/A   Clear
7:55 AM 41.0 °F 34.7 °F 33.8 °F 76% 29.52 in 10.0 mi ESE 10.4 mph 16.1 mph N/A   Clear
8:15 AM 41.0 °F 33.9 °F 33.8 °F 76% 29.51 in 10.0 mi SE 12.7 mph 18.4 mph N/A   Clear
8:35 AM 42.8 °F 37.0 °F 33.8 °F 70% 29.52 in 10.0 mi SE 10.4 mph - N/A   Unknown
8:55 AM 42.8 °F 38.0 °F 35.6 °F 76% 29.52 in 10.0 mi SE 8.1 mph - N/A   Clear
9:15 AM 42.8 °F 38.0 °F 35.6 °F 76% 29.52 in 10.0 mi ESE 8.1 mph - N/A   Clear
9:35 AM 44.6 °F 40.7 °F 35.6 °F 71% 29.52 in 10.0 mi SE 6.9 mph - N/A   Clear
9:55 AM 44.6 °F 40.7 °F 35.6 °F 71% 29.52 in 10.0 mi SE 6.9 mph - N/A   Clear
10:15 AM 46.4 °F 42.9 °F 35.6 °F 66% 29.52 in 10.0 mi SSE 6.9 mph - N/A   Clear
10:35 AM 46.4 °F 42.9 °F 35.6 °F 66% 29.52 in 10.0 mi SSE 6.9 mph - N/A   Clear
10:55 AM 50.0 °F - 35.6 °F 58% 29.52 in 10.0 mi SSE 10.4 mph 20.7 mph N/A   Clear
11:15 AM 50.0 °F - 33.8 °F 54% 29.51 in 10.0 mi SSE 12.7 mph 19.6 mph N/A   Clear
11:35 AM 50.0 °F - 33.8 °F 54% 29.50 in 10.0 mi SSE 11.5 mph 24.2 mph N/A   Clear
11:55 AM 51.8 °F - 35.6 °F 54% 29.49 in 10.0 mi SSE 13.8 mph 19.6 mph N/A   Clear
12:15 PM 51.8 °F - 35.6 °F 54% 29.50 in 10.0 mi South 10.4 mph 21.9 mph N/A   Clear
12:35 PM 55.4 °F - 35.6 °F 47% 29.49 in 10.0 mi SSE 11.5 mph 17.3 mph N/A   Clear
12:55 PM 55.4 °F - 35.6 °F 47% 29.48 in 10.0 mi SSE 15.0 mph 26.5 mph N/A   Scattered Clouds
1:15 PM 55.4 °F - 35.6 °F 47% 29.48 in 10.0 mi South 15.0 mph 21.9 mph N/A   Overcast
1:35 PM 57.2 °F - 35.6 °F 44% 29.48 in 10.0 mi South 11.5 mph 26.5 mph N/A   Overcast
1:55 PM 59.0 °F - 35.6 °F 42% 29.47 in 10.0 mi South 13.8 mph 24.2 mph N/A   Mostly Cloudy
2:15 PM 59.0 °F - 37.4 °F 45% 29.46 in 10.0 mi South 17.3 mph 20.7 mph N/A   Mostly Cloudy
2:35 PM 59.0 °F - 35.6 °F 42% 29.46 in 10.0 mi South 10.4 mph 16.1 mph N/A   Mostly Cloudy
2:55 PM 59.0 °F - 35.6 °F 42% 29.45 in 10.0 mi South 5.8 mph 9.2 mph N/A   Overcast
3:15 PM 60.8 °F - 35.6 °F 39% 29.45 in 10.0 mi SSW 12.7 mph 18.4 mph N/A   Overcast
3:35 PM 60.8 °F - 35.6 °F 39% 29.45 in 10.0 mi SSW 12.7 mph 17.3 mph N/A   Overcast
3:55 PM 60.8 °F - 35.6 °F 39% 29.47 in 10.0 mi SSW 13.8 mph - N/A   Overcast
4:15 PM 60.8 °F - 35.6 °F 39% 29.46 in 10.0 mi SSW 11.5 mph 18.4 mph N/A   Overcast
4:35 PM 60.8 °F - 35.6 °F 39% 29.46 in 10.0 mi South 10.4 mph - N/A   Mostly Cloudy
4:55 PM 60.8 °F - 35.6 °F 39% 29.45 in 10.0 mi SSW 9.2 mph - N/A   Scattered Clouds
5:15 PM 60.8 °F - 35.6 °F 39% 29.46 in 10.0 mi SSW 8.1 mph - N/A   Scattered Clouds
5:35 PM 62.6 °F - 35.6 °F 37% 29.46 in 10.0 mi South 10.4 mph - N/A   Scattered Clouds
5:55 PM 60.8 °F - 35.6 °F 39% 29.47 in 10.0 mi SSW 12.7 mph - N/A   Scattered Clouds
6:15 PM 60.8 °F - 35.6 °F 39% 29.46 in 10.0 mi SSW 8.1 mph - N/A   Unknown
6:35 PM 60.8 °F - 35.6 °F 39% 29.47 in 10.0 mi South 5.8 mph - N/A   Mostly Cloudy
6:55 PM 60.8 °F - 35.6 °F 39% 29.48 in 10.0 mi South 3.5 mph - N/A   Mostly Cloudy
7:15 PM 60.8 °F - 35.6 °F 39% 29.48 in 10.0 mi Calm Calm - N/A   Overcast
7:35 PM 60.8 °F - 35.6 °F 39% 29.48 in 10.0 mi Calm Calm - N/A   Unknown
7:55 PM 59.0 °F - 37.4 °F 45% 29.48 in 10.0 mi East 3.5 mph - N/A   Clear
8:15 PM 53.6 °F - 37.4 °F 54% 29.51 in 10.0 mi Calm Calm - N/A   Scattered Clouds
8:35 PM 53.6 °F - 39.2 °F 58% 29.51 in 10.0 mi Calm Calm - N/A   Scattered Clouds
8:55 PM 50.0 °F - 37.4 °F 62% 29.52 in 10.0 mi Calm Calm - N/A   Clear
9:15 PM 50.0 °F - 37.4 °F 62% 29.53 in 10.0 mi Calm Calm - N/A   Unknown
9:35 PM 50.0 °F - 37.4 °F 62% 29.55 in 10.0 mi WSW 5.8 mph - N/A Thunderstorm Scattered Clouds
9:55 PM 55.4 °F - 35.6 °F 47% 29.55 in 10.0 mi West 5.8 mph - N/A Thunderstorm Thunderstorm
10:15 PM 55.4 °F - 35.6 °F 47% 29.55 in 10.0 mi West 8.1 mph - N/A   Mostly Cloudy
10:35 PM 55.4 °F - 35.6 °F 47% 29.56 in 10.0 mi West 8.1 mph - N/A   Unknown
10:55 PM 53.6 °F - 37.4 °F 54% 29.57 in 10.0 mi WNW 9.2 mph 16.1 mph N/A   Clear
11:15 PM 51.8 °F - 37.4 °F 58% 29.58 in 10.0 mi NNW 4.6 mph - N/A   Clear
11:35 PM 50.0 °F - 35.6 °F 58% 29.59 in 10.0 mi West 3.5 mph - N/A   Clear
11:55 PM 50.0 °F - 35.6 °F 58% 29.60 in 10.0 mi WSW 5.8 mph - N/A   Clear